Home > Weather > Ann Arbor > Past weeks

Flag for USA Past Weather in Ann Arbor, Michigan, USA — Yesterday and Last 2 Weeks

Now
68 °F

Clear.


Feels Like: 68 °F
Forecast: 68 / 83 °F
Wind: 7 mph from Southwest

Location: Ann Arbor Municipal Airport

Current Time: May 29, 2016 at 7:46:00 AM

Latest Report: May 29, 2016 at 6:53 AM


Visibility: 10 mi

Pressure: 30.01 "Hg

Humidity: 84%

Dew Point: 63 °F

Location of Ann ArborLocation

Past Weather in Ann Arbor — Graph

°F

Ann Arbor Temperature Yesterday

Maximum temperature yesterday: 86 °F (at 1:53 PM)
Minimum temperature yesterday: 58 °F (at 5:02 AM)
Average temperature yesterday: 74 °F

High & Low Weather Summary for the Past Weeks

 TemperatureHumidityPressure
High86 °F (May 28, 1:53 PM)100% (May 19, 5:53 AM)30.26 "Hg (May 19, 5:53 AM)
Low33 °F (May 16, 1:53 AM)20% (May 23, 11:53 AM)29.63 "Hg (May 14, 5:53 AM)
Average60 °F63%30.05 "Hg
* Reported May 14 5:53 AM — May 29 5:53 AM, Ann Arbor, Weather by CustomWeather, © 2016

Note: Actual official high and low records may vary slightly from our data, if they occured in-between our weather recording intervals... More about our weather records

Advertising

Ann Arbor Weather History for the Previous 24 Hours

Scroll right to see more
 ConditionsComfort  
Time TempWeatherWind HumidityBarometerVisibility
5:53 AM
Sun, May 29
68 °FPassing clouds.5 mph84%30.01 "Hg10 mi
4:53 AM68 °FOvercast.6 mph84%30.02 "Hg10 mi
3:53 AM67 °FPassing clouds.5 mph87%30.02 "Hg10 mi
2:53 AM67 °FClear.6 mph85%30.03 "Hg10 mi
1:53 AM68 °FClear.5 mph78%30.03 "Hg10 mi
12:53 AM70 °FClear.5 mph71%30.03 "Hg10 mi
11:53 PM
Sat, May 28
72 °FClear.6 mph64%30.01 "Hg10 mi
10:53 PM76 °FClear.9 mph67%30.02 "Hg10 mi
9:53 PM76 °FSunny.10 mph64%30.02 "Hg10 mi
8:53 PM78 °FSunny.9 mph58%30.00 "Hg10 mi
7:53 PM80 °FSunny.10 mph54%29.99 "Hg10 mi
6:53 PM83 °FSunny.9 mph44%29.98 "Hg10 mi
5:53 PM84 °FSunny.9 mph46%29.98 "Hg10 mi
4:53 PM82 °FPassing clouds.12 mph49%29.99 "Hg10 mi
3:53 PM86 °FSunny.15 mph37%29.98 "Hg10 mi
2:53 PM86 °FPassing clouds.15 mph46%29.99 "Hg10 mi
1:53 PM86 °FSunny.13 mph46%30.01 "Hg10 mi
12:53 PM84 °FSunny.14 mph51%30.02 "Hg10 mi
11:53 AM82 °FSunny.10 mph58%30.02 "Hg10 mi
10:53 AM80 °FPassing clouds.9 mph62%30.03 "Hg10 mi
9:53 AM77 °FSunny.10 mph69%30.02 "Hg10 mi
8:53 AM74 °FPartly sunny.9 mph74%30.01 "Hg10 mi
7:53 AM69 °FPassing clouds.No wind87%30.01 "Hg10 mi
Weather by CustomWeather, © 2016

See weather overviewHow to use our weather pages